TimeEST,TemperatureF,Dew PointF,Humidity,Sea Level PressureIn,VisibilityMPH,Wind Direction,Wind SpeedMPH,Gust SpeedMPH,PrecipitationIn,Events,Conditions,WindDirDegrees,DateUTC
12:13 AM,64.4,64.4,100,30.06,1.5,Calm,Calm,-,N/A,,Scattered Clouds,0,2013-01-03 05:13:00
12:19 AM,64.4,64.4,100,30.06,0.8,Calm,Calm,-,N/A,,Mist,0,2013-01-03 05:19:00
12:24 AM,64.4,64.4,100,30.06,1.2,Calm,Calm,-,N/A,,Scattered Clouds,0,2013-01-03 05:24:00
12:28 AM,64.4,64.4,100,30.06,3.0,Calm,Calm,-,N/A,,Scattered Clouds,0,2013-01-03 05:28:00
12:46 AM,64.4,64.4,100,30.06,5.0,Calm,Calm,-,N/A,,Mostly Cloudy,0,2013-01-03 05:46:00
12:50 AM,64.4,64.4,100,30.06,2.5,Calm,Calm,-,N/A,,Mostly Cloudy,0,2013-01-03 05:50:00
12:53 AM,64.0,64.0,100,30.06,2.0,Calm,Calm,-,N/A,,Mostly Cloudy,0,2013-01-03 05:53:00
1:05 AM,64.4,64.4,100,30.06,0.8,Calm,Calm,-,N/A,,Mist,0,2013-01-03 06:05:00
1:13 AM,64.4,64.4,100,30.06,0.2,Calm,Calm,-,N/A,Fog,Fog,0,2013-01-03 06:13:00
1:20 AM,64.4,64.4,100,30.06,0.2,Calm,Calm,-,N/A,Fog,Fog,0,2013-01-03 06:20:00
2:31 AM,62.6,62.6,100,30.06,0.5,NE,4.6,-,N/A,Fog,Fog,50,2013-01-03 07:31:00
2:50 AM,64.4,64.4,100,30.06,0.2,NE,3.5,-,N/A,Fog,Fog,50,2013-01-03 07:50:00
2:53 AM,64.0,64.0,100,30.06,0.2,Calm,Calm,-,N/A,Fog,Fog,0,2013-01-03 07:53:00
3:00 AM,64.4,64.4,100,30.06,0.2,Calm,Calm,-,N/A,Fog,Fog,0,2013-01-03 08:00:00
3:27 AM,64.4,64.4,100,30.06,0.2,Calm,Calm,-,N/A,Fog,Fog,0,2013-01-03 08:27:00
3:53 AM,64.0,64.0,100,30.05,0.2,ENE,3.5,-,N/A,Fog,Fog,70,2013-01-03 08:53:00
4:28 AM,64.4,64.4,100,30.05,0.5,ENE,3.5,-,N/A,Fog,Fog,70,2013-01-03 09:28:00
4:48 AM,64.4,64.4,100,30.05,0.2,East,3.5,-,N/A,Fog,Fog,80,2013-01-03 09:48:00
4:53 AM,64.0,64.0,100,30.04,0.2,ENE,3.5,-,N/A,Fog,Fog,70,2013-01-03 09:53:00
5:53 AM,64.0,64.0,100,30.06,0.2,East,3.5,-,N/A,Fog,Fog,80,2013-01-03 10:53:00
6:53 AM,63.0,63.0,100,30.07,0.2,Calm,Calm,-,N/A,Fog,Fog,0,2013-01-03 11:53:00
7:53 AM,63.0,63.0,100,30.09,0.2,East,3.5,-,N/A,Fog,Fog,80,2013-01-03 12:53:00
8:51 AM,64.4,64.4,100,30.11,0.8,East,3.5,-,N/A,,Mist,80,2013-01-03 13:51:00
8:52 AM,64.9,64.9,100,30.11,0.8,East,3.5,-,N/A,,Mist,80,2013-01-03 13:52:00
9:03 AM,66.2,66.2,100,30.11,1.8,East,5.8,-,N/A,,Overcast,80,2013-01-03 14:03:00
9:06 AM,64.4,64.4,100,30.11,3.0,East,5.8,-,N/A,,Overcast,80,2013-01-03 14:06:00
9:20 AM,66.2,66.2,100,30.11,7.0,East,5.8,-,N/A,,Scattered Clouds,100,2013-01-03 14:20:00
9:53 AM,70.0,68.0,93,30.11,9.0,East,5.8,-,N/A,,Clear,100,2013-01-03 14:53:00
10:53 AM,75.9,70.0,82,30.10,10.0,SE,8.1,-,N/A,,Scattered Clouds,130,2013-01-03 15:53:00
11:53 AM,80.1,68.0,67,30.08,10.0,SSE,9.2,-,N/A,,Partly Cloudy,160,2013-01-03 16:53:00
12:53 PM,80.1,64.9,60,30.05,10.0,South,15.0,-,N/A,,Clear,170,2013-01-03 17:53:00
1:53 PM,81.0,63.0,54,30.03,10.0,South,12.7,-,N/A,,Partly Cloudy,170,2013-01-03 18:53:00
2:53 PM,80.1,66.0,62,30.03,10.0,SSW,13.8,-,N/A,,Partly Cloudy,200,2013-01-03 19:53:00
3:53 PM,79.0,68.0,69,30.04,10.0,South,10.4,-,N/A,,Clear,180,2013-01-03 20:53:00
4:53 PM,78.1,68.0,71,30.05,10.0,South,10.4,-,N/A,,Clear,180,2013-01-03 21:53:00
5:53 PM,75.0,69.1,82,30.07,10.0,SSE,5.8,-,N/A,,Clear,150,2013-01-03 22:53:00
6:53 PM,72.0,69.1,91,30.09,10.0,SE,4.6,-,N/A,,Clear,140,2013-01-03 23:53:00
7:53 PM,72.0,69.1,91,30.11,10.0,Calm,Calm,-,N/A,,Partly Cloudy,0,2013-01-04 00:53:00
8:53 PM,71.1,70.0,96,30.11,10.0,SSE,9.2,-,N/A,,Clear,160,2013-01-04 01:53:00
9:53 PM,70.0,69.1,97,30.12,10.0,SSE,5.8,-,N/A,,Clear,150,2013-01-04 02:53:00
10:53 PM,70.0,69.1,97,30.12,10.0,SE,4.6,-,N/A,,Clear,140,2013-01-04 03:53:00
11:53 PM,69.1,69.1,100,30.12,9.0,Calm,Calm,-,N/A,,Partly Cloudy,0,2013-01-04 04:53:00